Flag for Palestinian Territories Weather past 2 weeks in Nablus, West Bank, Palestinian Territories

77 °F


Feels Like: 78 °F
Forecast: 56 / 69 °F
Wind: 12 mph from Southeast

Location: Ben Gurion International Airport

Current Time: Nov 25, 2015 at 3:08:19 PM

Latest Report: Nov 25, 2015 at 2:20 PM

Visibility: 10 mi

Pressure: 30.01 "Hg (28.23 "Hg at 534m altitude)

Humidity: 30%

Dew point: 43 °F

Location of NablusLocation

Historic Weather in Nablus — Graph


Nablus temperature yesterday

Maximum temperature yesterday: 77 °F (at 12:20 PM)
Minimum temperature yesterday: 55 °F (at 6:20 AM)
Average temperature yesterday: 66 °F

Past Weeks' High & Low Weather Summary

High90 °F (Nov 15, 1:50 PM)94% (Nov 16, 11:20 AM)30.18 "Hg (Nov 16, 11:20 AM)
Low54 °F (Nov 14, 5:20 AM)20% (Nov 14, 10:20 AM)29.74 "Hg (Nov 16, 11:50 AM)
Average68 °F58%30.01 "Hg
* Reported Nov 10 1:20 PM — Nov 25 1:50 PM, Nablus, Weather by CustomWeather, © 2015

Note: Actual official high and low records may vary slightly from our data, if they occured in-between our weather recording intervals... More about our weather records


Nablus weather history for previous 24 hours

Time TempWeatherWind HumidityBarometerVisibility
1:50 PM
Wed, Nov 25
77 °FSunny.12 mph30%30.01 "Hg10 mi
1:20 PM77 °FSunny.18 mph30%30.01 "Hg10 mi
12:50 PM75 °FSunny.16 mph31%30.04 "Hg10 mi
12:20 PM77 °FSunny.16 mph30%30.04 "Hg10 mi
11:50 AM77 °FSunny.15 mph28%30.04 "Hg10 mi
11:20 AM77 °FSunny.15 mph26%30.04 "Hg10 mi
10:50 AM75 °FSunny.17 mph27%30.07 "Hg10 mi
10:20 AM75 °FPassing clouds.8 mph25%30.07 "HgN/A
9:50 AM73 °FSunny.8 mph25%30.07 "Hg10 mi
9:20 AM73 °FSunny.10 mph25%30.07 "Hg10 mi
8:50 AM70 °FSunny.13 mph31%30.07 "Hg10 mi
8:20 AM61 °FSunny.3 mph55%30.07 "Hg10 mi
7:50 AM59 °FSunny.7 mph55%30.07 "Hg10 mi
7:20 AM55 °FSunny.5 mph63%30.07 "Hg10 mi
6:50 AM55 °FSunny.5 mph59%30.07 "Hg10 mi
6:20 AM55 °FPassing clouds.5 mph51%30.07 "HgN/A
5:20 AM55 °FPassing clouds.6 mph51%30.09 "HgN/A
4:50 AM57 °FClear.7 mph48%30.09 "Hg10 mi
4:20 AM55 °FPassing clouds.6 mph51%30.09 "HgN/A
3:50 AM57 °FClear.3 mph44%30.09 "Hg10 mi
3:20 AM57 °FClear.2 mph44%30.09 "Hg10 mi
2:20 AM57 °FClear.2 mph44%30.09 "Hg10 mi
1:50 AM59 °FClear.3 mph42%30.12 "Hg10 mi
1:20 AM59 °FClear.10 mph45%30.09 "Hg10 mi
12:50 AM57 °FClear.7 mph48%30.09 "Hg10 mi
12:20 AM57 °FClear.2 mph51%30.12 "Hg10 mi
11:50 PM
Tue, Nov 24
61 °FClear.7 mph42%30.12 "Hg10 mi
11:20 PM59 °FClear.6 mph59%30.15 "Hg10 mi
10:50 PM59 °FClear.2 mph59%30.15 "Hg10 mi
10:20 PM57 °FClear.3 mph67%30.15 "Hg10 mi
9:50 PM59 °FClear.5 mph68%30.12 "Hg10 mi
9:20 PM63 °FClear.3 mph56%30.12 "Hg10 mi
8:50 PM63 °FClear.2 mph59%30.12 "Hg10 mi
8:20 PM63 °FClear.2 mph59%30.12 "Hg10 mi
7:50 PM63 °FClear.5 mph59%30.12 "Hg10 mi
7:20 PM66 °FClear.1 mph52%30.12 "Hg10 mi
6:50 PM66 °FClear.2 mph52%30.12 "Hg10 mi
6:20 PM68 °FClear.2 mph49%30.12 "Hg10 mi
5:50 PM70 °FClear.3 mph46%30.09 "Hg10 mi
5:20 PM72 °FClear.6 mph44%30.09 "Hg10 mi
4:50 PM75 °FClear.8 mph36%30.09 "Hg10 mi
4:20 PM75 °FSunny.10 mph36%30.09 "Hg10 mi
3:50 PM77 °FSunny.9 mph34%30.09 "Hg10 mi
3:20 PM77 °FSunny.9 mph32%30.09 "Hg10 mi
Weather by CustomWeather, © 2015

See weather overviewHow to use our weather pages